| time (UTC) | temp C | wind direction | speed KPH | gust KPH | rain 1hr cm | rain 24hr cm | rain mn cm | humidity % | barometer mb |
| 20260505063031 | 11 | 0 | 0.0 | 0.0 | 0.00 | 0.00 | 0.00 | 82 | 1012.3 |
| 20260505062511 | 11 | 0 | 0.0 | 0.0 | 0.00 | 0.00 | 0.00 | 82 | 1012.3 |
| 20260505062011 | 11 | 0 | 0.0 | 0.0 | 0.00 | 0.00 | 0.00 | 82 | 1012.3 |
| 20260505061534 | 11 | 0 | 0.0 | 0.0 | 0.00 | 0.00 | 0.00 | 82 | 1012.2 |
| 20260505061018 | 11 | 0 | 0.0 | 0.0 | 0.00 | 0.00 | 0.00 | 81 | 1012.1 |
| 20260505060514 | 11 | 0 | 0.0 | 0.0 | 0.00 | 0.00 | 0.00 | 81 | 1012.1 |
| 20260505060044 | 11 | 0 | 0.0 | 0.0 | 0.00 | 0.00 | 0.00 | 81 | 1012.2 |
| 20260505055518 | 12 | 0 | 0.0 | 0.0 | 0.00 | 0.00 | 0.00 | 81 | 1012.1 |
| 20260505055018 | 12 | 0 | 0.0 | 0.0 | 0.00 | 0.00 | 0.00 | 80 | 1012.1 |
| 20260505054533 | 12 | 0 | 0.0 | 0.0 | 0.00 | 0.00 | 0.00 | 80 | 1012.1 |
| 20260505054013 | 12 | 0 | 0.0 | 0.0 | 0.00 | 0.00 | 0.00 | 79 | 1012.1 |
| 20260505053515 | 12 | 0 | 0.0 | 0.0 | 0.00 | 0.00 | 0.00 | 79 | 1012.1 |
| 20260505053032 | 12 | 0 | 0.0 | 0.0 | 0.00 | 0.00 | 0.00 | 79 | 1012.1 |
| 20260505052514 | 12 | 0 | 0.0 | 0.0 | 0.00 | 0.00 | 0.00 | 78 | 1012.1 |
| 20260505052015 | 12 | 0 | 0.0 | 0.0 | 0.00 | 0.00 | 0.00 | 78 | 1012.1 |
| 20260505051535 | 12 | 0 | 0.0 | 0.0 | 0.00 | 0.00 | 0.00 | 78 | 1012.1 |
| 20260505051015 | 13 | 0 | 0.0 | 0.0 | 0.00 | 0.00 | 0.00 | 77 | 1012.1 |
| 20260505050512 | 13 | 0 | 0.0 | 0.0 | 0.00 | 0.00 | 0.00 | 77 | 1012.0 |
| 20260505041530 | 15 | 0 | 0.0 | 0.0 | 0.00 | 0.00 | 0.00 | 73 | 1011.5 |
| 20260505041015 | 15 | 0 | 0.0 | 0.0 | 0.00 | 0.00 | 0.00 | 72 | 1011.5 |
| 20260505040514 | 15 | 0 | 0.0 | 0.0 | 0.00 | 0.00 | 0.00 | 72 | 1011.5 |
| 20260505040036 | 15 | 0 | 0.0 | 0.0 | 0.00 | 0.00 | 0.00 | 70 | 1011.2 |
| 20260505035514 | 15 | 0 | 0.0 | 0.0 | 0.00 | 0.00 | 0.00 | 70 | 1011.1 |
| 20260505035014 | 16 | 0 | 0.0 | 0.0 | 0.00 | 0.00 | 0.00 | 70 | 1011.1 |
| 20260505034532 | 16 | 0 | 0.0 | 0.0 | 0.00 | 0.00 | 0.00 | 70 | 1011.0 |
| 20260505034014 | 16 | 0 | 0.0 | 3.2 | 0.00 | 0.00 | 0.00 | 69 | 1011.0 |
| 20260505033512 | 16 | 0 | 0.0 | 1.6 | 0.00 | 0.00 | 0.00 | 68 | 1010.9 |
| 20260505033032 | 17 | 0 | 0.0 | 0.0 | 0.00 | 0.00 | 0.00 | 68 | 1010.9 |
| 20260505032515 | 17 | 0 | 0.0 | 3.2 | 0.00 | 0.00 | 0.00 | 68 | 1010.7 |
| 20260505032011 | 17 | 0 | 0.0 | 3.2 | 0.00 | 0.00 | 0.00 | 67 | 1010.7 |
| 20260505031532 | 17 | 0 | 0.0 | 1.6 | 0.00 | 0.00 | 0.00 | 67 | 1010.7 |
| 20260505031011 | 18 | 222 | 0.0 | 1.6 | 0.00 | 0.00 | 0.00 | 66 | 1010.7 |
| 20260505030515 | 18 | 0 | 0.0 | 3.2 | 0.00 | 0.00 | 0.00 | 65 | 1010.6 |
| 20260505030035 | 18 | 0 | 0.0 | 3.2 | 0.00 | 0.00 | 0.00 | 65 | 1010.6 |
| 20260505025518 | 18 | 0 | 0.0 | 3.2 | 0.00 | 0.00 | 0.00 | 65 | 1010.6 |
| 20260505025015 | 19 | 0 | 0.0 | 3.2 | 0.00 | 0.00 | 0.00 | 64 | 1010.4 |
| 20260505024533 | 19 | 0 | 0.0 | 3.2 | 0.00 | 0.00 | 0.00 | 63 | 1010.4 |
| 20260505024014 | 20 | 222 | 0.0 | 3.2 | 0.00 | 0.00 | 0.00 | 63 | 1010.3 |
| 20260505023515 | 20 | 222 | 0.0 | 3.2 | 0.00 | 0.00 | 0.00 | 62 | 1010.3 |
| 20260505023034 | 20 | 0 | 0.0 | 4.8 | 0.00 | 0.00 | 0.00 | 61 | 1010.2 |
| 20260505022515 | 20 | 0 | 0.0 | 4.8 | 0.00 | 0.00 | 0.00 | 60 | 1010.2 |
| 20260505022013 | 21 | 0 | 0.0 | 3.2 | 0.00 | 0.00 | 0.00 | 59 | 1010.2 |
| 20260505021533 | 21 | 0 | 0.0 | 6.4 | 0.00 | 0.00 | 0.00 | 59 | 1010.1 |
| 20260505021011 | 21 | 0 | 0.0 | 6.4 | 0.00 | 0.00 | 0.00 | 57 | 1010.1 |
| 20260505020515 | 21 | 271 | 0.0 | 3.2 | 0.00 | 0.00 | 0.00 | 56 | 1010.1 |
| 20260505020032 | 21 | 309 | 0.0 | 3.2 | 0.00 | 0.00 | 0.00 | 56 | 1010.1 |
| 20260505015515 | 22 | 213 | 0.0 | 3.2 | 0.00 | 0.00 | 0.00 | 55 | 1010.0 |
| 20260505015014 | 22 | 0 | 0.0 | 6.4 | 0.00 | 0.00 | 0.00 | 54 | 1010.0 |
| 20260505014532 | 22 | 229 | 1.6 | 6.4 | 0.00 | 0.00 | 0.00 | 53 | 1010.0 |
| 20260505014019 | 23 | 207 | 1.6 | 6.4 | 0.00 | 0.00 | 0.00 | 51 | 1010.0 |
| 20260505013514 | 23 | 0 | 0.0 | 4.8 | 0.00 | 0.00 | 0.00 | 51 | 1010.2 |
| 20260505013050 | 23 | 0 | 0.0 | 4.8 | 0.00 | 0.00 | 0.00 | 52 | 1010.0 |
| 20260505012514 | 23 | 294 | 0.0 | 4.8 | 0.00 | 0.00 | 0.00 | 50 | 1010.0 |
| 20260505012014 | 24 | 32 | 0.0 | 6.4 | 0.00 | 0.00 | 0.00 | 49 | 1010.0 |
| 20260505011532 | 24 | 335 | 1.6 | 6.4 | 0.00 | 0.00 | 0.00 | 48 | 1010.0 |
| 20260505011011 | 25 | 235 | 1.6 | 8.0 | 0.00 | 0.00 | 0.00 | 48 | 1010.0 |
| 20260505010519 | 25 | 22 | 1.6 | 8.0 | 0.00 | 0.00 | 0.00 | 47 | 1010.0 |
| 20260505010035 | 25 | 259 | 1.6 | 4.8 | 0.00 | 0.00 | 0.00 | 47 | 1009.9 |
| 20260505005514 | 25 | 186 | 1.6 | 4.8 | 0.00 | 0.00 | 0.00 | 47 | 1010.0 |
| 20260505005014 | 25 | 205 | 0.0 | 4.8 | 0.00 | 0.00 | 0.00 | 47 | 1010.0 |
| 20260505004531 | 25 | 220 | 1.6 | 4.8 | 0.00 | 0.00 | 0.00 | 47 | 1010.0 |
| 20260505004011 | 25 | 192 | 1.6 | 8.0 | 0.00 | 0.00 | 0.00 | 47 | 1009.9 |
| 20260505003516 | 25 | 229 | 1.6 | 8.0 | 0.00 | 0.00 | 0.00 | 46 | 1009.9 |
| 20260505003034 | 25 | 229 | 1.6 | 6.4 | 0.00 | 0.00 | 0.00 | 47 | 1009.9 |
| 20260505002515 | 25 | 24 | 1.6 | 6.4 | 0.00 | 0.00 | 0.00 | 48 | 1009.9 |
| 20260505002012 | 25 | 14 | 1.6 | 6.4 | 0.00 | 0.00 | 0.00 | 48 | 1009.8 |
| 20260505001532 | 25 | 223 | 3.2 | 6.4 | 0.00 | 0.00 | 0.00 | 46 | 1009.7 |
| 20260505001014 | 26 | 272 | 1.6 | 6.4 | 0.00 | 0.00 | 0.00 | 46 | 1009.7 |
| 20260505000514 | 26 | 144 | 1.6 | 11.3 | 0.00 | 0.00 | 0.00 | 46 | 1009.7 |
| 20260505000040 | 26 | 185 | 1.6 | 11.3 | 0.00 | 0.00 | 0.00 | 46 | 1009.7 |
| 20260504235514 | 26 | 194 | 3.2 | 11.3 | 0.00 | 0.00 | 0.00 | 46 | 1009.8 |
| 20260504235014 | 26 | 167 | 1.6 | 6.4 | 0.00 | 0.00 | 0.00 | 48 | 1009.9 |
| 20260504234535 | 26 | 173 | 1.6 | 8.0 | 0.00 | 0.00 | 0.00 | 46 | 1010.0 |
| 20260504234014 | 26 | 294 | 1.6 | 11.3 | 0.00 | 0.00 | 0.00 | 46 | 1010.0 |
| 20260504233514 | 26 | 327 | 1.6 | 11.3 | 0.00 | 0.00 | 0.00 | 45 | 1010.0 |
| 20260504233033 | 26 | 237 | 3.2 | 11.3 | 0.00 | 0.00 | 0.00 | 44 | 1010.0 |
| 20260504232514 | 27 | 347 | 1.6 | 6.4 | 0.00 | 0.00 | 0.00 | 45 | 1009.8 |
| 20260504232015 | 27 | 209 | 1.6 | 9.7 | 0.00 | 0.00 | 0.00 | 45 | 1010.0 |
| 20260504231529 | 27 | 246 | 3.2 | 9.7 | 0.00 | 0.00 | 0.00 | 47 | 1009.9 |
| 20260504231012 | 27 | 251 | 3.2 | 8.0 | 0.00 | 0.00 | 0.00 | 45 | 1009.9 |
| 20260504230514 | 27 | 246 | 1.6 | 8.0 | 0.00 | 0.00 | 0.00 | 47 | 1010.0 |
| 20260504230032 | 27 | 200 | 0.0 | 8.0 | 0.00 | 0.00 | 0.00 | 45 | 1010.0 |
| 20260504225515 | 27 | 332 | 3.2 | 6.4 | 0.00 | 0.00 | 0.00 | 47 | 1010.0 |
| 20260504225017 | 27 | 307 | 0.0 | 8.0 | 0.00 | 0.00 | 0.00 | 50 | 1010.1 |
| 20260504224533 | 26 | 311 | 1.6 | 8.0 | 0.00 | 0.00 | 0.00 | 45 | 1010.1 |
| 20260504224014 | 27 | 253 | 4.8 | 8.0 | 0.00 | 0.00 | 0.00 | 45 | 1010.1 |
| 20260504223514 | 27 | 262 | 1.6 | 8.0 | 0.00 | 0.00 | 0.00 | 47 | 1010.1 |
| 20260504223030 | 27 | 188 | 3.2 | 8.0 | 0.00 | 0.00 | 0.00 | 45 | 1010.0 |
| 20260504222513 | 27 | 198 | 1.6 | 6.4 | 0.00 | 0.00 | 0.00 | 46 | 1010.2 |
| 20260504222019 | 27 | 0 | 1.6 | 6.4 | 0.00 | 0.00 | 0.00 | 46 | 1010.1 |
| 20260504221532 | 27 | 224 | 1.6 | 4.8 | 0.00 | 0.00 | 0.00 | 45 | 1010.1 |
| 20260504221015 | 27 | 153 | 1.6 | 4.8 | 0.00 | 0.00 | 0.00 | 47 | 1010.2 |
| 20260504220515 | 27 | 295 | 0.0 | 11.3 | 0.00 | 0.00 | 0.00 | 50 | 1010.1 |
| 20260504220040 | 26 | 171 | 0.0 | 11.3 | 0.00 | 0.00 | 0.00 | 51 | 1010.3 |
| 20260504215515 | 26 | 169 | 3.2 | 11.3 | 0.00 | 0.00 | 0.00 | 49 | 1010.3 |
| 20260504215015 | 26 | 0 | 0.0 | 3.2 | 0.00 | 0.00 | 0.00 | 51 | 1010.3 |
| 20260504214540 | 26 | 180 | 0.0 | 3.2 | 0.00 | 0.00 | 0.00 | 51 | 1010.4 |
| 20260504214018 | 26 | 224 | 0.0 | 4.8 | 0.00 | 0.00 | 0.00 | 52 | 1010.6 |
| 20260504213514 | 26 | 340 | 0.0 | 9.7 | 0.00 | 0.00 | 0.00 | 53 | 1010.6 |
| 20260504213034 | 26 | 247 | 1.6 | 11.3 | 0.00 | 0.00 | 0.00 | 51 | 1010.6 |
| 20260504212517 | 26 | 211 | 4.8 | 11.3 | 0.00 | 0.00 | 0.00 | 52 | 1010.6 |
| 20260504212017 | 25 | 0 | 0.0 | 6.4 | 0.00 | 0.00 | 0.00 | 54 | 1010.6 |
| 20260504211535 | 25 | 101 | 1.6 | 6.4 | 0.00 | 0.00 | 0.00 | 54 | 1010.7 |
| 20260504211014 | 25 | 53 | 0.0 | 3.2 | 0.00 | 0.00 | 0.00 | 53 | 1010.6 |
| 20260504210513 | 25 | 85 | 1.6 | 9.7 | 0.00 | 0.00 | 0.00 | 53 | 1010.7 |
| 20260504210030 | 25 | 248 | 1.6 | 9.7 | 0.00 | 0.00 | 0.00 | 55 | 1010.7 |
| 20260504205515 | 25 | 236 | 1.6 | 9.7 | 0.00 | 0.00 | 0.00 | 54 | 1010.7 |
| 20260504205014 | 25 | 249 | 3.2 | 8.0 | 0.00 | 0.00 | 0.00 | 56 | 1010.6 |
| 20260504204530 | 25 | 74 | 1.6 | 8.0 | 0.00 | 0.00 | 0.00 | 56 | 1010.8 |
| 20260504204014 | 25 | 250 | 1.6 | 4.8 | 0.00 | 0.00 | 0.00 | 56 | 1010.8 |
| 20260504203518 | 25 | 5 | 0.0 | 8.0 | 0.00 | 0.00 | 0.00 | 56 | 1010.9 |
| 20260504203035 | 24 | 242 | 3.2 | 12.9 | 0.00 | 0.00 | 0.00 | 56 | 1011.0 |
| 20260504202514 | 24 | 244 | 1.6 | 12.9 | 0.00 | 0.00 | 0.00 | 55 | 1011.0 |
| 20260504202013 | 24 | 250 | 3.2 | 12.9 | 0.00 | 0.00 | 0.00 | 57 | 1011.0 |
| 20260504201532 | 24 | 0 | 0.0 | 6.4 | 0.00 | 0.00 | 0.00 | 56 | 1011.0 |
| 20260504201011 | 24 | 257 | 0.0 | 3.2 | 0.00 | 0.00 | 0.00 | 58 | 1011.2 |
| 20260504200514 | 23 | 214 | 0.0 | 4.8 | 0.00 | 0.00 | 0.00 | 58 | 1011.2 |
| 20260504200032 | 23 | 0 | 0.0 | 4.8 | 0.00 | 0.00 | 0.00 | 57 | 1011.3 |
| 20260504195514 | 23 | 232 | 1.6 | 4.8 | 0.00 | 0.00 | 0.00 | 58 | 1011.2 |
| 20260504195016 | 23 | 0 | 0.0 | 3.2 | 0.00 | 0.00 | 0.00 | 58 | 1011.3 |
| 20260504194532 | 22 | 197 | 0.0 | 11.3 | 0.00 | 0.00 | 0.00 | 61 | 1011.2 |
| 20260504194015 | 22 | 238 | 0.0 | 12.9 | 0.00 | 0.00 | 0.00 | 60 | 1011.2 |
| 20260504193515 | 22 | 232 | 4.8 | 12.9 | 0.00 | 0.00 | 0.00 | 59 | 1011.2 |
| 20260504193034 | 22 | 279 | 3.2 | 8.0 | 0.00 | 0.00 | 0.00 | 60 | 1011.2 |
| 20260504192515 | 22 | 236 | 1.6 | 6.4 | 0.00 | 0.00 | 0.00 | 62 | 1011.3 |
| 20260504192014 | 22 | 0 | 1.6 | 11.3 | 0.00 | 0.00 | 0.00 | 62 | 1011.4 |
| 20260504191531 | 22 | 38 | 1.6 | 11.3 | 0.00 | 0.00 | 0.00 | 62 | 1011.4 |
| 20260504191015 | 22 | 205 | 1.6 | 4.8 | 0.00 | 0.00 | 0.00 | 63 | 1011.5 |
| 20260504190514 | 21 | 90 | 1.6 | 4.8 | 0.00 | 0.00 | 0.00 | 63 | 1011.5 |
| 20260504190032 | 21 | 166 | 1.6 | 11.3 | 0.00 | 0.00 | 0.00 | 62 | 1011.6 |
| 20260504185515 | 21 | 189 | 1.6 | 12.9 | 0.00 | 0.00 | 0.00 | 62 | 1011.6 |
| 20260504185018 | 21 | 238 | 1.6 | 12.9 | 0.00 | 0.00 | 0.00 | 62 | 1011.6 |
| 20260504184534 | 21 | 187 | 1.6 | 8.0 | 0.00 | 0.00 | 0.00 | 63 | 1011.7 |
| 20260504184015 | 21 | 241 | 1.6 | 12.9 | 0.00 | 0.00 | 0.00 | 64 | 1011.8 |
| 20260504183516 | 21 | 252 | 1.6 | 12.9 | 0.00 | 0.00 | 0.00 | 65 | 1011.6 |
| 20260504183032 | 20 | 257 | 1.6 | 8.0 | 0.00 | 0.00 | 0.00 | 65 | 1011.6 |
| 20260504182515 | 20 | 216 | 3.2 | 8.0 | 0.00 | 0.00 | 0.00 | 64 | 1011.7 |
| 20260504182016 | 21 | 213 | 1.6 | 4.8 | 0.00 | 0.00 | 0.00 | 64 | 1011.8 |
| 20260504181536 | 20 | 0 | 0.0 | 6.4 | 0.00 | 0.00 | 0.00 | 66 | 1011.8 |
| 20260504181015 | 20 | 50 | 1.6 | 8.0 | 0.00 | 0.00 | 0.00 | 66 | 1011.9 |
| 20260504180514 | 20 | 242 | 3.2 | 8.0 | 0.00 | 0.00 | 0.00 | 65 | 1011.8 |
| 20260504180032 | 20 | 231 | 1.6 | 6.4 | 0.00 | 0.00 | 0.00 | 67 | 1011.8 |
| 20260504175514 | 20 | 227 | 3.2 | 6.4 | 0.00 | 0.00 | 0.00 | 66 | 1011.7 |
| 20260504175015 | 19 | 61 | 0.0 | 11.3 | 0.00 | 0.00 | 0.00 | 68 | 1011.7 |
| 20260504174536 | 18 | 19 | 0.0 | 11.3 | 0.00 | 0.00 | 0.00 | 69 | 1011.7 |
| 20260504174015 | 18 | 229 | 3.2 | 11.3 | 0.00 | 0.00 | 0.00 | 69 | 1011.8 |
| 20260504173515 | 18 | 229 | 1.6 | 6.4 | 0.00 | 0.00 | 0.00 | 70 | 1011.8 |
| 20260504173033 | 18 | 0 | 1.6 | 6.4 | 0.00 | 0.00 | 0.00 | 70 | 1011.7 |
| 20260504172514 | 17 | 0 | 1.6 | 6.4 | 0.00 | 0.00 | 0.00 | 71 | 1011.8 |
| 20260504172014 | 17 | 91 | 0.0 | 4.8 | 0.00 | 0.00 | 0.00 | 72 | 1011.8 |
| 20260504171536 | 17 | 78 | 0.0 | 9.7 | 0.00 | 0.00 | 0.00 | 73 | 1011.8 |
| 20260504171014 | 17 | 254 | 1.6 | 11.3 | 0.00 | 0.00 | 0.00 | 72 | 1011.9 |
| 20260504170513 | 17 | 213 | 3.2 | 11.3 | 0.00 | 0.00 | 0.00 | 73 | 1011.7 |
| 20260504151017 | 11 | 286 | 0.0 | 3.2 | 0.00 | 0.00 | 0.00 | 90 | 1011.1 |
| 20260504150514 | 10 | 0 | 0.0 | 1.6 | 0.00 | 0.00 | 0.00 | 90 | 1011.1 |
| 20260504141014 | 9 | 0 | 0.0 | 0.0 | 0.00 | 0.00 | 0.00 | 89 | 1010.7 |
| 20260504140514 | 8 | 0 | 0.0 | 0.0 | 0.00 | 0.00 | 0.00 | 88 | 1010.7 |
| 20260504130515 | 8 | 0 | 0.0 | 0.0 | 0.00 | 0.00 | 0.00 | 87 | 1010.0 |
| 20260504110514 | 10 | 0 | 0.0 | 0.0 | 0.00 | 0.00 | 0.00 | 86 | 1009.5 |
| 20260504100517 | 11 | 0 | 0.0 | 0.0 | 0.00 | 0.00 | 0.00 | 85 | 1009.5 |
| 20260504081536 | 13 | 0 | 0.0 | 0.0 | 0.00 | 0.00 | 0.00 | 80 | 1009.5 |
| 20260504081015 | 13 | 0 | 0.0 | 0.0 | 0.00 | 0.00 | 0.00 | 80 | 1009.5 |
| 20260504080515 | 13 | 0 | 0.0 | 0.0 | 0.00 | 0.00 | 0.00 | 79 | 1009.5 |